Regional Weather Roundup
Issued by NWS

Home | Current Version | Previous Version | Graphics & Text | Print | Product List | Glossary On
Versions: 1 2 3 4 5 6 7 8 9 10 11 12 13 14 15 16 17 18 19 20 21 22 23 24 25 26 27 28 29 30 31 32 33 34 35 36 37 38 39 40 41 42 43 44 45 46 47 48 49 50
000
ASUS43 KBIS 290202
RWRND

NORTH DAKOTA REGIONAL WEATHER ROUNDUP
NATIONAL WEATHER SERVICE BISMARCK ND
900 PM CDT SUN MAY 28 2017

NOTE: "FAIR" INDICATES FEW OR NO CLOUDS BELOW 12,000 FEET WITH NO
SIGNIFICANT WEATHER AND/OR OBSTRUCTIONS TO VISIBILITY.


NDZ001>003-009>011-017-290300-
NORTHWEST NORTH DAKOTA

CITY           SKY/WX    TMP DP  RH WIND       PRES   REMARKS
WILLISTON      FAIR      60  40  47 N15       30.03R
MINOT          FAIR      58  43  57 NW18G35   29.93R
MINOT AFB      PTCLDY    57  43  59 N17G28    29.92R
$$

NDZ018>021-031>035-040>046-290300-
SOUTHWEST NORTH DAKOTA

CITY           SKY/WX    TMP DP  RH WIND       PRES   REMARKS
BISMARCK       FAIR      61  40  45 N18G26    29.93R
DICKINSON      FAIR      61  27  27 N16G29    29.97R
GARRISON         N/A     56  40  55 NW21      29.93S
HETTINGER ARPT CLEAR     62  32  32 N18       30.00R
$$

NDZ004>008-012>016-024-026-027-054-290300-
NORTHEAST NORTH DAKOTA

CITY           SKY/WX    TMP DP  RH WIND       PRES   REMARKS
GRAND FORKS    CLOUDY    54  48  80 NW20G25   29.77S
GRND FRKS AFB  DRIZZLE   54  46  76 N12       29.79R
DEVILS LAKE    CLOUDY    55  46  71 N15       29.84R
$$

NDZ022-023-025-028>030-036>039-047>053-290300-
SOUTHEAST NORTH DAKOTA

CITY           SKY/WX    TMP DP  RH WIND       PRES   REMARKS
FARGO          CLOUDY    55  51  86 NW12      29.78R
JAMESTOWN      MOCLDY    56  45  66 N13       29.84R
$$





USA.gov is the U.S. government's official web portal to all federal, state and local government web resources and services.